TimeBST,TemperatureF,Dew PointF,Humidity,Sea Level PressureIn,VisibilityMPH,Wind Direction,Wind SpeedMPH,Gust SpeedMPH,PrecipitationIn,Events,Conditions,WindDirDegrees,DateUTC
12:20 AM,39.2,37.4,93,29.98,-9999.0,SW,6.9,-,N/A,,Clear,230,2012-09-18 23:20:00
12:50 AM,39.2,37.4,93,29.98,-9999.0,WSW,8.1,-,N/A,,Clear,240,2012-09-18 23:50:00
1:20 AM,41.0,39.2,93,29.98,-9999.0,WSW,8.1,-,N/A,,Clear,250,2012-09-19 00:20:00
1:50 AM,39.2,37.4,93,29.98,-9999.0,WSW,8.1,-,N/A,,Clear,240,2012-09-19 00:50:00
2:20 AM,39.2,37.4,93,29.98,-9999.0,SW,6.9,-,N/A,,Clear,230,2012-09-19 01:20:00
2:50 AM,37.4,35.6,93,30.01,6.2,WSW,6.9,-,N/A,,Unknown,250,2012-09-19 01:50:00
3:20 AM,37.4,35.6,93,30.01,6.2,WSW,4.6,-,N/A,,Unknown,240,2012-09-19 02:20:00
3:50 AM,39.2,39.2,100,30.01,6.2,Variable,3.5,-,N/A,,Unknown,0,2012-09-19 02:50:00
4:20 AM,37.4,35.6,93,30.01,-9999.0,WSW,3.5,-,N/A,,Clear,240,2012-09-19 03:20:00
4:50 AM,39.2,37.4,93,30.01,-9999.0,WSW,8.1,-,N/A,,Clear,250,2012-09-19 03:50:00
5:20 AM,39.2,37.4,93,30.01,-9999.0,WSW,6.9,-,N/A,,Clear,250,2012-09-19 04:20:00
5:50 AM,37.4,35.6,93,30.01,-9999.0,WSW,8.1,-,N/A,,Clear,240,2012-09-19 04:50:00
6:20 AM,37.4,37.4,100,30.01,-9999.0,WSW,6.9,-,N/A,,Clear,240,2012-09-19 05:20:00
6:50 AM,37.4,37.4,100,30.01,-9999.0,WSW,5.8,-,N/A,,Clear,240,2012-09-19 05:50:00
7:20 AM,39.2,37.4,93,30.04,-9999.0,WSW,4.6,-,N/A,,Clear,250,2012-09-19 06:20:00
7:50 AM,39.2,37.4,93,30.04,-9999.0,WSW,5.8,-,N/A,,Clear,250,2012-09-19 06:50:00
8:20 AM,42.8,41.0,93,30.04,-9999.0,WSW,6.9,-,N/A,,Clear,250,2012-09-19 07:20:00
8:50 AM,46.4,42.8,87,30.04,-9999.0,WSW,8.1,-,N/A,,Clear,250,2012-09-19 07:50:00
9:20 AM,48.2,42.8,82,30.04,-9999.0,WSW,9.2,-,N/A,,Clear,250,2012-09-19 08:20:00
9:50 AM,50.0,42.8,76,30.04,-9999.0,WSW,9.2,-,N/A,,Clear,250,2012-09-19 08:50:00
10:20 AM,51.8,42.8,71,30.04,6.2,West,10.4,-,N/A,,Partly Cloudy,260,2012-09-19 09:20:00
10:50 AM,51.8,42.8,71,30.04,6.2,West,12.7,-,N/A,,Partly Cloudy,260,2012-09-19 09:50:00
11:20 AM,53.6,42.8,67,30.04,6.2,West,12.7,-,N/A,,Partly Cloudy,260,2012-09-19 10:20:00
11:50 AM,53.6,41.0,62,30.04,6.2,West,12.7,-,N/A,,Scattered Clouds,270,2012-09-19 10:50:00
12:20 PM,55.4,42.8,63,30.04,6.2,West,11.5,-,N/A,,Scattered Clouds,270,2012-09-19 11:20:00
12:50 PM,53.6,41.0,62,30.04,6.2,West,12.7,-,N/A,,Mostly Cloudy,260,2012-09-19 11:50:00
1:20 PM,55.4,41.0,58,30.04,6.2,West,12.7,-,N/A,,Scattered Clouds,260,2012-09-19 12:20:00
1:50 PM,55.4,41.0,58,30.04,6.2,West,12.7,-,N/A,,Scattered Clouds,260,2012-09-19 12:50:00
2:20 PM,55.4,41.0,58,30.04,6.2,West,13.8,-,N/A,,Scattered Clouds,270,2012-09-19 13:20:00
2:50 PM,55.4,42.8,63,30.04,6.2,West,13.8,-,N/A,,Partly Cloudy,270,2012-09-19 13:50:00
3:20 PM,57.2,42.8,59,30.04,6.2,West,12.7,-,N/A,,Scattered Clouds,270,2012-09-19 14:20:00
3:50 PM,55.4,42.8,63,30.04,6.2,West,8.1,-,N/A,,Partly Cloudy,280,2012-09-19 14:50:00
4:20 PM,55.4,42.8,63,30.04,6.2,West,10.4,-,N/A,,Scattered Clouds,280,2012-09-19 15:20:00
4:50 PM,53.6,41.0,62,30.04,6.2,West,13.8,-,N/A,,Partly Cloudy,260,2012-09-19 15:50:00
5:20 PM,55.4,41.0,58,30.04,6.2,West,12.7,-,N/A,,Partly Cloudy,270,2012-09-19 16:20:00
5:50 PM,53.6,41.0,62,30.04,6.2,West,12.7,-,N/A,,Partly Cloudy,270,2012-09-19 16:50:00
6:20 PM,53.6,41.0,62,30.04,6.2,West,10.4,-,N/A,,Scattered Clouds,260,2012-09-19 17:20:00
6:50 PM,51.8,41.0,67,30.04,6.2,West,11.5,-,N/A,,Scattered Clouds,260,2012-09-19 17:50:00
7:20 PM,50.0,41.0,71,30.04,-9999.0,West,10.4,-,N/A,,Clear,260,2012-09-19 18:20:00
7:50 PM,48.2,41.0,76,30.04,-9999.0,WSW,10.4,-,N/A,,Clear,240,2012-09-19 18:50:00
8:20 PM,48.2,42.8,82,30.04,-9999.0,WSW,10.4,-,N/A,,Clear,240,2012-09-19 19:20:00
8:50 PM,48.2,42.8,82,30.04,-9999.0,WSW,10.4,-,N/A,,Clear,250,2012-09-19 19:50:00
9:20 PM,46.4,42.8,87,30.06,-9999.0,WSW,8.1,-,N/A,,Clear,240,2012-09-19 20:20:00
9:50 PM,46.4,42.8,87,30.04,-9999.0,SW,6.9,-,N/A,,Clear,230,2012-09-19 20:50:00
10:20 PM,44.6,42.8,93,30.04,-9999.0,WSW,6.9,-,N/A,,Clear,240,2012-09-19 21:20:00
10:50 PM,46.4,42.8,87,30.04,-9999.0,West,4.6,-,N/A,,Clear,270,2012-09-19 21:50:00
11:20 PM,44.6,42.8,93,30.04,-9999.0,WSW,8.1,-,N/A,,Clear,240,2012-09-19 22:20:00
11:50 PM,46.4,42.8,87,30.04,6.2,WSW,6.9,-,N/A,,Scattered Clouds,250,2012-09-19 22:50:00